Weather observations for the past three days for
Olathe, New Century Aircenter
Imperial (Metric)
Date Time (cdt) Wind (mph) Vis. (mi.) Weather Sky Cond. Temperature (ºF) Relative Humidity Wind Chill (°F) Heat Index (°F) Pressure Precipitation (in)
Air Dwpt 6 hour altimeter (in) sea level (mb) 1 hr 3 hr 6 hr
Max. Min.
24 02:53 S 5 10.00 Fair CLR 68 64 87% 30.12 1018.7
24 01:53 S 5 10.00 Fair CLR 68 64 87% 30.11 1018.6
24 00:53 SE 5 10.00 Fair CLR 71.1 64 84.9 69.1 79% 30.12 1018.9
23 23:53 S 3 10.00 Fair CLR 70 64 82% 30.12 1018.8
23 22:53 SE 5 10.00 Fair CLR 75.9 64 67% 78 30.11 1018.5
23 21:53 SE 3 10.00 Fair CLR 75 63 66% 77 30.1 1018.0
23 20:53 N 3 10.00 Fair CLR 79 63 58% 81 30.09 1017.6
23 19:53 Vrbl 3 10.00 Mostly Cloudy BKN055 82.9 64.9 55% 85 30.07 1017.2
23 18:53 SE 5 10.00 Mostly Cloudy FEW075 BKN100 84.9 64 88 82.9 50% 86 30.06 1016.9
23 17:53 S 5 10.00 Mostly Cloudy BKN055 86 63 46% 87 30.06 1016.8
23 16:53 Vrbl 5 10.00 A Few Clouds FEW050 FEW070 84.9 63 48% 86 30.06 1016.9
23 15:53 S 5 10.00 Overcast SCT060 SCT080 OVC100 84.9 62.1 46% 85 30.07 1017.2
23 14:53 Calm 10.00 A Few Clouds FEW050 87.1 62.1 43% 88 30.08 1017.3
23 13:53 SE 3 10.00 Mostly Cloudy SCT049 BKN060 84.9 62.1 46% 85 30.09 1017.6
23 12:53 Calm 10.00 Mostly Cloudy BKN048 86 63 86 64.9 46% 87 30.1 1018.1
23 11:53 Calm 10.00 Mostly Cloudy SCT055 BKN070 82.9 64 53% 84 30.11 1018.3
23 10:53 Calm 10.00 Fair CLR 81 64 57% 83 30.1 1018.2
23 09:53 SW 5 10.00 Fair CLR 79 63 58% 81 30.1 1017.9
23 08:53 W 3 10.00 Fair CLR 77 64 64% 79 30.1 1017.9
23 07:53 SW 5 10.00 Fair CLR 70 64.9 84% 30.09 1017.9
23 06:53 SE 3 10.00 Fair CLR 64.9 62.1 70 64 90% 30.08 1017.5
23 05:53 Calm 10.00 Fair CLR 66 62.1 87% 30.07 1017.1
23 04:53 Calm 10.00 Fair CLR 66 62.1 87% 30.05 1016.6
23 03:53 Calm 10.00 Fair CLR 66 62.1 87% 30.04 1016.4
23 02:53 Calm 10.00 Fair CLR 66 62.1 87% 30.05 1016.6
23 01:53 Calm 10.00 Fair CLR 69.1 63 81% 30.05 1016.6
23 00:53 Calm 10.00 Fair CLR 70 63 80.1 68 79% 30.06 1016.9
22 23:53 Calm 10.00 Fair CLR 72 64 76% 30.07 1017.2
22 22:53 Calm 10.00 Fair CLR 72 64 76% 30.06 1016.9
22 21:53 S 5 10.00 Overcast BKN048 OVC055 73.9 64 71% 30.04 1016.3
22 20:53 Calm 10.00 Mostly Cloudy BKN049 BKN055 77 63 62% 79 30.03 1015.8
22 19:53 S 5 10.00 Overcast BKN055 BKN070 OVC085 79 64 60% 81 30.02 1015.4
22 18:53 S 5 10.00 Partly Cloudy SCT055 SCT090 80.1 63 84.9 80.1 56% 81 30.01 1015.1
22 17:53 Calm 10.00 A Few Clouds FEW050 82.9 61 48% 83 30.01 1015.0
22 16:53 S 7 10.00 Partly Cloudy SCT050 82.9 62.1 49% 84 30.02 1015.6
22 15:53 E 5 10.00 Overcast SCT047 BKN060 OVC080 81 61 51% 82 30.04 1016.3
22 14:53 Calm 10.00 Overcast BKN044 OVC090 81 62.1 53% 82 30.06 1017.0
22 13:53 NW 5 10.00 Partly Cloudy SCT043 SCT070 82.9 62.1 49% 84 30.08 1017.3
22 12:53 NW 6 10.00 Partly Cloudy SCT042 81 62.1 82.9 64 53% 82 30.09 1017.7
22 11:53 N 7 10.00 Partly Cloudy SCT034 80.1 63 56% 81 30.1 1018.3
22 10:53 Vrbl 3 10.00 Mostly Cloudy BKN031 77 63 62% 79 30.11 1018.7
22 09:53 Calm 10.00 Fair CLR 77 63 62% 79 30.12 1018.7
22 08:53 Calm 10.00 Overcast OVC095 73.9 64 71% 30.12 1018.8
22 06:53 Calm 6.00 Fog/Mist CLR 64 62.1 66.9 62.1 93% 30.09 1017.9
22 05:53 Calm 9.00 Fair CLR 63 60.1 90% 30.09 1017.8
22 04:53 Calm 10.00 Fair CLR 63 61 93% 30.08 1017.5
22 03:53 Calm 10.00 Fair CLR 62.1 60.1 93% 30.09 1018.0
22 02:53 Calm 10.00 Fair CLR 63 59 87% 30.1 1018.1
22 01:53 Calm 10.00 Fair CLR 66.9 60.1 79% 30.1 1018.2
22 00:53 Calm 10.00 Fair CLR 68 61 80.1 66 78% 30.11 1018.7
21 23:53 NE 3 10.00 Fair CLR 69.1 60.1 73% 30.12 1019.0
21 22:53 NE 3 10.00 Fair CLR 66.9 60.1 79% 30.12 1018.9
21 21:53 Calm 10.00 Fair CLR 72 60.1 66% 30.11 1018.6
21 20:53 N 6 10.00 Fair CLR 71.1 60.1 68% 30.09 1018.1
21 19:53 NE 8 10.00 Fair CLR 78.1 59 52% 79 30.08 1017.5
21 18:53 N 6 10.00 Fair CLR 80.1 61 82.9 78.1 52% 81 30.07 1017.4
21 17:53 E 3 10.00 Mostly Cloudy FEW044 BKN080 80.1 61 52% 81 30.09 1017.8
21 16:53 E 7 10.00 Overcast FEW045 OVC075 80.1 60.1 51% 81 30.1 1018.2
21 15:53 NE 9 10.00 Overcast BKN047 BKN065 OVC075 80.1 60.1 51% 81 30.11 1018.7
21 14:53 E 6 G 17 10.00 Mostly Cloudy BKN055 BKN070 82 57.9 44% 82 30.13 1019.2
21 13:53 Vrbl 7 10.00 Mostly Cloudy BKN047 BKN070 80.1 57.9 47% 81 30.14 1019.7
21 12:53 NE 7 10.00 Partly Cloudy SCT044 78.1 57.9 80.1 66.9 50% 79 30.15 1019.9
21 11:53 E 5 10.00 Mostly Cloudy BKN036 75.9 59 56% 78 30.16 1020.2
21 10:53 E 8 10.00 Partly Cloudy FEW028 SCT110 75.9 62.1 62% 78 30.16 1020.1
21 09:53 N 3 10.00 Overcast OVC110 73 62.1 69% 30.15 1020.1
21 08:53 NE 5 10.00 Overcast OVC110 70 62.1 76% 30.16 1020.5
21 07:53 NE 5 10.00 Overcast OVC100 68 63 84% 30.16 1020.2
21 05:53 E 6 10.00 Overcast OVC060 66.9 63 87% 30.12 1019.2
21 04:53 NE 5 10.00 Overcast SCT060 OVC085 66 63 90% 30.12 1019.0
21 03:53 Calm 7.00 Mostly Cloudy BKN085 64.9 62.1 90% 30.12 1019.1
Date Time (cdt) Wind (mph) Vis. (mi.) Weather Sky Cond. Air Dwpt Max. Min. Relative Humidity Wind Chill (°F) Heat Index (°F) altimeter (in) sea level (mb) 1 hr 3 hr 6 hr
6 hour
Temperature (ºF) Pressure Precipitation (in)